EUTELSAT 117 WEST A

Last updated on Fri Dec 19 2025 00:02:50 GMT+0000 (Coordinated Universal Time)

1 39122U 13012A 25352.58946009 .00000012 00000+0 00000+0 0 9993 2 39122 0.0281 46.0538 0002708 226.1705 270.6367 1.00272916 46623
UTC large
Height (km)
Speed (km/s)
/
Latitude / Longitude
Inclination (degrees)
Orbital Period (minutes)
Azimuth
Elevation
Range (km)
Doppler Factor

Next 0 passes for location: London (51.5072 / 0.1276)

Sorry there are no passes over London.